map of LOE home
LOE - Airport
Location
City:  Loei, Loei, Thailand
ICAO:VTUL
IATA:LOE

Details
Type:Airport (Aerodrome, Airfield)
Latitude:1726'21"N (17.439133)
Longitude:10143'19"E (101.722064)
Datum:WGS 1984
Elevation:860 ft (262 m)
Variation:0.93W (WMM2015v2 magnetic declination)
-0.04 annual change
Runways:1
Longest:6890 × 148 ft (2100 × 45 m), paved

Time
Time Zone:UTC+7
Local Time:

Weather
METAR:VTUL 041200Z 00000KT 6000 FEW030 27/18 Q1012 NOSIG
TAF:VTUL 041100Z 0412/0512 05005KT 6000 NSC
BECMG 0417/0419 3000 BR
BECMG 0422/0424 0800 FG
BECMG 0501/0503 6000 NSW

Related Locations
Nearby:
Farthest:SJA: 12189 mi / 19617 km
San Juan de Marcona [San Juan de Marcona Airport], ICA, PE

Find:

   beyond  
but within

Other Information
Maps:
NOTAMs:
Links:
Sources:

  
  • flag of Thailand
  

Sectional Chart

Flight Planning
at skyvector.com

Satellite Image

Google Maps Satellite view

 

Copyright © 2004-2019 Karl L. Swartz. All rights reserved.
The Great Circle Mapper name and logo are trademarks of the Great Circle Mapper.
All other trademarks mentioned herein belong to their respective owners.
Please see credits for attibutions and further copyright information.

  Follow gcmap on Facebook Follow gcmap on Twitter GCmap on LinkedIn

hCard Microformat

Geo Microformat